Data No,UTC Date,UTC Time,Latitude,Longitude,Course(deg),Temp(degC)
560,2022/5/12,9:19,42-36.90N,141-37.07E,203,7.419
561,2022/5/12,9:20,42-36.67N,141-36.93E,205,7.594
562,2022/5/12,9:21,42-36.43N,141-36.77E,203,7.104
563,2022/5/12,9:22,42-36.18N,141-36.74E,175,8.793
564,2022/5/12,9:23,42-35.92N,141-36.84E,161,8.218
565,2022/5/12,9:24,42-35.66N,141-36.96E,160,7.869
566,2022/5/12,9:25,42-35.40N,141-37.08E,161,7.691
567,2022/5/12,9:26,42-35.13N,141-37.21E,160,7.948
568,2022/5/12,9:27,42-34.86N,141-37.34E,158,8.125
569,2022/5/12,9:28,42-34.61N,141-37.53E,148,7.623
570,2022/5/12,9:29,42-34.36N,141-37.75E,146,7.44
571,2022/5/12,9:30,42-34.12N,141-37.97E,146,7.458
572,2022/5/12,9:31,42-33.86N,141-38.19E,146,7.409
573,2022/5/12,9:32,42-33.61N,141-38.41E,147,7.531
574,2022/5/12,9:33,42-33.35N,141-38.64E,147,7.222
575,2022/5/12,9:34,42-33.09N,141-38.87E,147,6.885
576,2022/5/12,9:35,42-32.83N,141-39.09E,147,6.596
577,2022/5/12,9:36,42-32.56N,141-39.32E,147,6.503
578,2022/5/12,9:37,42-32.29N,141-39.54E,147,6.271
579,2022/5/12,9:38,42-32.02N,141-39.78E,147,6.156
580,2022/5/12,9:39,42-31.75N,141-40.01E,147,6.206
581,2022/5/12,9:40,42-31.48N,141-40.25E,147,6.185
582,2022/5/12,9:41,42-31.21N,141-40.48E,147,6.235
583,2022/5/12,9:42,42-30.93N,141-40.72E,147,6.218
584,2022/5/12,9:43,42-30.65N,141-40.96E,147,6.425
585,2022/5/12,9:44,42-30.37N,141-41.20E,147,6.423
586,2022/5/12,9:45,42-30.09N,141-41.44E,147,6.071
587,2022/5/12,9:46,42-29.82N,141-41.67E,147,5.99
588,2022/5/12,9:47,42-29.55N,141-41.91E,147,6.068
589,2022/5/12,9:48,42-29.27N,141-42.15E,147,6.09
590,2022/5/12,9:49,42-28.98N,141-42.40E,147,6.579
591,2022/5/12,9:50,42-28.72N,141-42.66E,142,7.287
592,2022/5/12,9:51,42-28.47N,141-42.95E,137,7.489
593,2022/5/12,9:52,42-28.22N,141-43.28E,135,7.562
594,2022/5/12,9:53,42-28.00N,141-43.59E,134,6.809
595,2022/5/12,9:54,42-27.76N,141-43.91E,134,6.644
596,2022/5/12,9:55,42-27.53N,141-44.22E,134,6.364
597,2022/5/12,9:56,42-27.29N,141-44.54E,134,6.187
598,2022/5/12,9:57,42-27.05N,141-44.87E,135,6.187
599,2022/5/12,9:58,42-26.81N,141-45.18E,134,6.31
600,2022/5/12,9:59,42-26.57N,141-45.52E,134,6.541
601,2022/5/12,10:00,42-26.34N,141-45.83E,134,6.848
602,2022/5/12,10:01,42-26.09N,141-46.16E,134,7.208
603,2022/5/12,10:02,42-25.85N,141-46.49E,134,7.424
604,2022/5/12,10:03,42-25.61N,141-46.81E,134,7.825
605,2022/5/12,10:04,42-25.38N,141-47.17E,125,7.651
606,2022/5/12,10:05,42-25.21N,141-47.57E,119,7.474
607,2022/5/12,10:06,42-25.03N,141-47.98E,118,7.803
608,2022/5/12,10:07,42-24.87N,141-48.38E,118,7.967
609,2022/5/12,10:08,42-24.70N,141-48.79E,118,8.118
610,2022/5/12,10:09,42-24.53N,141-49.23E,118,8.428
611,2022/5/12,10:10,42-24.36N,141-49.64E,118,8.678
612,2022/5/12,10:11,42-24.19N,141-50.06E,118,8.572
613,2022/5/12,10:12,42-24.02N,141-50.48E,118,8.68
614,2022/5/12,10:13,42-23.85N,141-50.90E,118,8.359
615,2022/5/12,10:14,42-23.68N,141-51.32E,118,8.313
616,2022/5/12,10:15,42-23.51N,141-51.75E,118,8.345
617,2022/5/12,10:16,42-23.33N,141-52.18E,118,8.278
618,2022/5/12,10:17,42-23.17N,141-52.58E,118,8.213
619,2022/5/12,10:18,42-23.00N,141-53.01E,118,8.504
620,2022/5/12,10:19,42-22.83N,141-53.43E,118,8.692
621,2022/5/12,10:20,42-22.66N,141-53.86E,118,8.845
622,2022/5/12,10:21,42-22.49N,141-54.27E,119,8.701
623,2022/5/12,10:22,42-22.31N,141-54.70E,119,8.894
624,2022/5/12,10:23,42-22.13N,141-55.14E,119,8.924
625,2022/5/12,10:24,42-21.95N,141-55.55E,119,8.709
626,2022/5/12,10:25,42-21.77N,141-55.97E,119,8.58
627,2022/5/12,10:26,42-21.59N,141-56.39E,119,8.196
628,2022/5/12,10:27,42-21.41N,141-56.82E,119,8.075
629,2022/5/12,10:28,42-21.24N,141-57.25E,119,8.281
630,2022/5/12,10:29,42-21.05N,141-57.70E,119,8.327
631,2022/5/12,10:30,42-20.88N,141-58.10E,119,8.232
632,2022/5/12,10:31,42-20.67N,141-58.58E,119,8.417
633,2022/5/12,10:32,42-20.48N,141-59.02E,120,8.49
634,2022/5/12,10:33,42-20.29N,141-59.45E,120,8.361
635,2022/5/12,10:34,42-20.13N,141-59.83E,120,8.383
636,2022/5/12,10:35,42-19.95N,142-00.23E,120,8.763
637,2022/5/12,10:36,42-19.73N,142-00.72E,120,8.943
638,2022/5/12,10:37,42-19.54N,142-01.16E,120,9.12
639,2022/5/12,10:38,42-19.37N,142-01.55E,120,9.071
640,2022/5/12,10:39,42-19.19N,142-01.96E,120,8.31
641,2022/5/12,10:40,42-19.00N,142-02.38E,121,7.669
642,2022/5/12,10:41,42-18.81N,142-02.81E,120,7.727
643,2022/5/12,10:42,42-18.62N,142-03.25E,120,8.166
644,2022/5/12,10:43,42-18.44N,142-03.67E,120,8.597
645,2022/5/12,10:44,42-18.25N,142-04.10E,120,8.912
646,2022/5/12,10:45,42-18.06N,142-04.54E,120,8.876
647,2022/5/12,10:46,42-17.88N,142-04.95E,120,8.949
648,2022/5/12,10:47,42-17.66N,142-05.46E,120,8.77
649,2022/5/12,10:48,42-17.47N,142-05.88E,120,8.586
650,2022/5/12,10:49,42-17.28N,142-06.32E,120,8.574
651,2022/5/12,10:50,42-17.12N,142-06.69E,120,8.679
652,2022/5/12,10:51,42-16.93N,142-07.12E,120,8.633
653,2022/5/12,10:52,42-16.74N,142-07.56E,120,8.753
654,2022/5/12,10:53,42-16.55N,142-07.98E,120,8.673
655,2022/5/12,10:54,42-16.36N,142-08.44E,120,8.485
656,2022/5/12,10:55,42-16.17N,142-08.84E,121,8.473
657,2022/5/12,10:56,42-15.98N,142-09.28E,120,8.679
658,2022/5/12,10:57,42-15.79N,142-09.71E,120,8.955
659,2022/5/12,10:58,42-15.61N,142-10.13E,120,8.873
660,2022/5/12,10:59,42-15.41N,142-10.57E,120,8.819
661,2022/5/12,11:00,42-15.23N,142-10.99E,120,8.883
662,2022/5/12,11:01,42-15.04N,142-11.42E,120,8.782
663,2022/5/12,11:02,42-14.85N,142-11.87E,121,8.692
664,2022/5/12,11:03,42-14.67N,142-12.27E,121,8.384
665,2022/5/12,11:04,42-14.48N,142-12.70E,121,8.028
666,2022/5/12,11:05,42-14.29N,142-13.12E,121,7.921
667,2022/5/12,11:06,42-14.10N,142-13.54E,121,7.982
668,2022/5/12,11:07,42-13.91N,142-13.97E,121,8.07
669,2022/5/12,11:08,42-13.72N,142-14.38E,121,8.131
670,2022/5/12,11:09,42-13.53N,142-14.81E,121,8.301
671,2022/5/12,11:10,42-13.34N,142-15.22E,121,8.164
672,2022/5/12,11:11,42-13.15N,142-15.64E,121,7.91
673,2022/5/12,11:12,42-12.96N,142-16.07E,121,7.796
674,2022/5/12,11:13,42-12.77N,142-16.50E,121,8.267
675,2022/5/12,11:14,42-12.58N,142-16.91E,121,8.295
676,2022/5/12,11:15,42-12.40N,142-17.32E,121,8.179
677,2022/5/12,11:16,42-12.21N,142-17.74E,121,8.164
678,2022/5/12,11:17,42-12.01N,142-18.16E,121,8.067
679,2022/5/12,11:18,42-11.82N,142-18.59E,121,7.967
680,2022/5/12,11:19,42-11.64N,142-18.99E,121,7.912
681,2022/5/12,11:20,42-11.44N,142-19.42E,121,7.852
682,2022/5/12,11:21,42-11.26N,142-19.83E,120,7.844
683,2022/5/12,11:22,42-11.07N,142-20.25E,120,8.015
684,2022/5/12,11:23,42-10.89N,142-20.68E,120,8.219
685,2022/5/12,11:24,42-10.70N,142-21.09E,120,8.07
686,2022/5/12,11:25,42-10.49N,142-21.58E,120,7.83
687,2022/5/12,11:26,42-10.34N,142-21.93E,119,7.965
688,2022/5/12,11:27,42-10.16N,142-22.37E,119,8.053
689,2022/5/12,11:28,42-09.99N,142-22.78E,119,8.007
690,2022/5/12,11:29,42-09.80N,142-23.22E,119,7.841
691,2022/5/12,11:30,42-09.63N,142-23.64E,119,7.877
692,2022/5/12,11:31,42-09.45N,142-24.06E,119,7.763
693,2022/5/12,11:32,42-09.26N,142-24.49E,119,7.708
694,2022/5/12,11:33,42-09.09N,142-24.91E,119,7.729
695,2022/5/12,11:34,42-08.91N,142-25.34E,119,7.899
696,2022/5/12,11:35,42-08.72N,142-25.78E,119,7.878
697,2022/5/12,11:36,42-08.55N,142-26.19E,119,7.803
698,2022/5/12,11:37,42-08.37N,142-26.63E,119,7.967
699,2022/5/12,11:38,42-08.19N,142-27.05E,119,8.017
700,2022/5/12,11:39,42-08.01N,142-27.47E,119,8.433
701,2022/5/12,11:40,42-07.83N,142-27.90E,119,8.788
702,2022/5/12,11:41,42-07.66N,142-28.32E,119,8.745
703,2022/5/12,11:42,42-07.47N,142-28.76E,119,8.731
704,2022/5/12,11:43,42-07.30N,142-29.17E,119,8.851
705,2022/5/12,11:44,42-07.12N,142-29.60E,119,8.666
706,2022/5/12,11:45,42-06.94N,142-30.03E,119,8.563
707,2022/5/12,11:46,42-06.77N,142-30.45E,119,8.34
708,2022/5/12,11:47,42-06.59N,142-30.89E,118,8.313
709,2022/5/12,11:48,42-06.42N,142-31.30E,119,8.395
710,2022/5/12,11:49,42-06.23N,142-31.75E,119,8.072
711,2022/5/12,11:50,42-06.06N,142-32.16E,119,7.728
712,2022/5/12,11:51,42-05.88N,142-32.59E,119,7.744
713,2022/5/12,11:52,42-05.70N,142-33.02E,119,7.772
714,2022/5/12,11:53,42-05.53N,142-33.43E,118,7.754
715,2022/5/12,11:54,42-05.36N,142-33.85E,118,7.52
716,2022/5/12,11:55,42-05.18N,142-34.28E,118,7.937
717,2022/5/12,11:56,42-05.01N,142-34.72E,118,7.495
718,2022/5/12,11:57,42-04.84N,142-35.13E,118,7.138
719,2022/5/12,11:58,42-04.67N,142-35.55E,118,7.986
720,2022/5/12,11:59,42-04.49N,142-35.97E,118,7.872
721,2022/5/12,12:00,42-04.32N,142-36.40E,118,6.98
722,2022/5/12,12:01,42-04.14N,142-36.83E,118,6.785
723,2022/5/12,12:02,42-03.97N,142-37.25E,118,6.755
724,2022/5/12,12:03,42-03.80N,142-37.68E,118,6.887
725,2022/5/12,12:04,42-03.63N,142-38.09E,119,6.946
726,2022/5/12,12:05,42-03.45N,142-38.52E,118,7.01
727,2022/5/12,12:06,42-03.28N,142-38.94E,119,7.076
728,2022/5/12,12:07,42-03.10N,142-39.37E,119,7.117
729,2022/5/12,12:08,42-02.93N,142-39.79E,118,6.972
730,2022/5/12,12:09,42-02.76N,142-40.22E,118,7.05
731,2022/5/12,12:10,42-02.58N,142-40.65E,118,7.049
732,2022/5/12,12:11,42-02.41N,142-41.06E,118,7.12
733,2022/5/12,12:12,42-02.24N,142-41.49E,118,7.332
734,2022/5/12,12:13,42-02.06N,142-41.93E,119,7.168
735,2022/5/12,12:14,42-01.88N,142-42.38E,118,7.265
736,2022/5/12,12:15,42-01.70N,142-42.82E,118,7.496
737,2022/5/12,12:16,42-01.55N,142-43.18E,118,7.942
738,2022/5/12,12:17,42-01.38N,142-43.61E,118,7.279
739,2022/5/12,12:18,42-01.20N,142-44.04E,118,7.259
740,2022/5/12,12:19,42-01.01N,142-44.51E,118,7.101
741,2022/5/12,12:20,42-00.84N,142-44.95E,118,7.855
742,2022/5/12,12:21,42-00.67N,142-45.37E,118,8.097
743,2022/5/12,12:22,42-00.51N,142-45.74E,118,8.06
744,2022/5/12,12:23,42-00.34N,142-46.17E,118,7.824
745,2022/5/12,12:24,42-00.17N,142-46.58E,117,8.046
746,2022/5/12,12:25,42-00.00N,142-47.01E,117,7.739
747,2022/5/12,12:26,41-59.83N,142-47.44E,118,8.219
748,2022/5/12,12:27,41-59.66N,142-47.86E,118,8.03
749,2022/5/12,12:28,41-59.50N,142-48.27E,117,8.165
750,2022/5/12,12:29,41-59.31N,142-48.75E,119,7.568
751,2022/5/12,12:30,41-59.12N,142-49.19E,119,7.032
752,2022/5/12,12:31,41-58.95N,142-49.56E,120,6.868
753,2022/5/12,12:32,41-58.78N,142-49.97E,120,6.783
754,2022/5/12,12:33,41-58.60N,142-50.37E,120,6.714
755,2022/5/12,12:34,41-58.42N,142-50.79E,120,6.976
756,2022/5/12,12:35,41-58.24N,142-51.20E,120,6.973
757,2022/5/12,12:36,41-58.05N,142-51.62E,120,7.109
758,2022/5/12,12:37,41-57.86N,142-52.05E,120,7.043
759,2022/5/12,12:38,41-57.69N,142-52.44E,121,7.222
760,2022/5/12,12:39,41-57.50N,142-52.85E,120,7.513
761,2022/5/12,12:40,41-57.32N,142-53.27E,120,7.407
762,2022/5/12,12:41,41-57.14N,142-53.67E,120,7.309
763,2022/5/12,12:42,41-56.95N,142-54.11E,120,6.883
764,2022/5/12,12:43,41-56.77N,142-54.50E,120,6.556
765,2022/5/12,12:44,41-56.58N,142-54.92E,121,6.554
766,2022/5/12,12:45,41-56.40N,142-55.34E,120,6.597
767,2022/5/12,12:46,41-56.22N,142-55.75E,120,6.639
768,2022/5/12,12:47,41-56.04N,142-56.17E,120,8.073
769,2022/5/12,12:48,41-55.85N,142-56.59E,120,8.714
770,2022/5/12,12:49,41-55.67N,142-57.01E,120,9.119
771,2022/5/12,12:50,41-55.48N,142-57.43E,120,9.178
772,2022/5/12,12:51,41-55.30N,142-57.84E,120,9.304
773,2022/5/12,12:52,41-55.11N,142-58.29E,119,9.487
774,2022/5/12,12:53,41-54.94N,142-58.69E,119,9.727
775,2022/5/12,12:54,41-54.76N,142-59.12E,119,9.785
776,2022/5/12,12:55,41-54.58N,142-59.54E,120,9.444
777,2022/5/12,12:56,41-54.40N,142-59.95E,120,9.383
778,2022/5/12,12:57,41-54.21N,143-00.37E,120,9.066
779,2022/5/12,12:58,41-54.02N,143-00.79E,120,8.514
780,2022/5/12,12:59,41-53.83N,143-01.22E,121,7.389
781,2022/5/12,13:00,41-53.64N,143-01.63E,120,7.492
782,2022/5/12,13:01,41-53.46N,143-02.05E,120,7.116
783,2022/5/12,13:02,41-53.27N,143-02.47E,120,7.343
784,2022/5/12,13:03,41-53.08N,143-02.88E,120,7.331
785,2022/5/12,13:04,41-52.89N,143-03.30E,121,6.616
786,2022/5/12,13:05,41-52.71N,143-03.72E,120,6.412
787,2022/5/12,13:06,41-52.52N,143-04.12E,121,6.959
788,2022/5/12,13:07,41-52.34N,143-04.54E,121,7.392
789,2022/5/12,13:08,41-52.15N,143-04.96E,121,7.504
790,2022/5/12,13:09,41-51.96N,143-05.36E,121,6.91
791,2022/5/12,13:10,41-51.77N,143-05.78E,121,6.419
792,2022/5/12,13:11,41-51.59N,143-06.19E,119,6.287
793,2022/5/12,13:12,41-51.42N,143-06.61E,118,6.44
794,2022/5/12,13:13,41-51.24N,143-07.04E,118,6.221
795,2022/5/12,13:14,41-51.07N,143-07.46E,119,6.097
796,2022/5/12,13:15,41-50.90N,143-07.89E,118,5.943
797,2022/5/12,13:16,41-50.72N,143-08.32E,118,6.058
798,2022/5/12,13:17,41-50.56N,143-08.73E,115,6.341
799,2022/5/12,13:18,41-50.41N,143-09.18E,115,6.659
800,2022/5/12,13:19,41-50.26N,143-09.61E,114,6.552
801,2022/5/12,13:20,41-50.10N,143-10.05E,115,6.839
802,2022/5/12,13:21,41-50.01N,143-10.51E,102,6.544
803,2022/5/12,13:22,41-49.95N,143-10.97E,99,6.641
804,2022/5/12,13:23,41-49.89N,143-11.45E,98,6.929
805,2022/5/12,13:24,41-49.84N,143-11.93E,98,6.82
806,2022/5/12,13:25,41-49.78N,143-12.40E,98,6.501
807,2022/5/12,13:26,41-49.73N,143-12.87E,98,6.45
808,2022/5/12,13:27,41-49.67N,143-13.34E,99,6.405
809,2022/5/12,13:28,41-49.61N,143-13.84E,99,6.572
810,2022/5/12,13:29,41-49.56N,143-14.30E,98,6.3
811,2022/5/12,13:30,41-49.50N,143-14.79E,98,6.275
812,2022/5/12,13:31,41-49.45N,143-15.26E,98,6.51
813,2022/5/12,13:32,41-49.39N,143-15.75E,98,6.354
814,2022/5/12,13:33,41-49.34N,143-16.24E,98,6.003
815,2022/5/12,13:34,41-49.28N,143-16.71E,98,5.878
816,2022/5/12,13:35,41-49.23N,143-17.19E,99,5.997
817,2022/5/12,13:36,41-49.17N,143-17.67E,99,6.297
818,2022/5/12,13:37,41-49.11N,143-18.15E,99,6.229
819,2022/5/12,13:38,41-49.06N,143-18.64E,95,5.756
820,2022/5/12,13:39,41-49.06N,143-19.10E,87,5.736
821,2022/5/12,13:40,41-49.12N,143-19.57E,74,5.848
822,2022/5/12,13:41,41-49.25N,143-20.00E,64,5.682
823,2022/5/12,13:42,41-49.44N,143-20.40E,55,6.134
824,2022/5/12,13:43,41-49.69N,143-20.74E,38,6.082
825,2022/5/12,13:44,41-49.99N,143-20.98E,29,6.09
826,2022/5/12,13:45,41-50.31N,143-21.22E,27,6.058
827,2022/5/12,13:46,41-50.63N,143-21.45E,28,5.883
828,2022/5/12,13:47,41-50.95N,143-21.69E,28,5.936
829,2022/5/12,13:48,41-51.27N,143-21.94E,29,5.338
830,2022/5/12,13:49,41-51.58N,143-22.17E,28,5.128
831,2022/5/12,13:50,41-51.90N,143-22.42E,30,4.988
832,2022/5/12,13:51,41-52.20N,143-22.67E,31,4.975
833,2022/5/12,13:52,41-52.52N,143-22.92E,30,4.548
834,2022/5/12,13:53,41-52.84N,143-23.18E,30,4.011
835,2022/5/12,13:54,41-53.14N,143-23.43E,31,3.808
836,2022/5/12,13:55,41-53.46N,143-23.68E,30,3.715
837,2022/5/12,13:56,41-53.77N,143-23.92E,29,3.78
838,2022/5/12,13:57,41-54.09N,143-24.16E,29,4.102
839,2022/5/12,13:58,41-54.42N,143-24.41E,30,4.228
840,2022/5/12,13:59,41-54.72N,143-24.68E,32,4.097
841,2022/5/12,14:00,41-55.04N,143-24.94E,31,4.095
842,2022/5/12,14:01,41-55.35N,143-25.20E,31,4.163
843,2022/5/12,14:02,41-55.66N,143-25.46E,31,4.251
844,2022/5/12,14:03,41-55.99N,143-25.74E,31,4.317
845,2022/5/12,14:04,41-56.29N,143-25.99E,32,4.392
846,2022/5/12,14:05,41-56.62N,143-26.26E,32,4.338
847,2022/5/12,14:06,41-56.91N,143-26.51E,32,4.418
848,2022/5/12,14:07,41-57.23N,143-26.78E,32,4.503
849,2022/5/12,14:08,41-57.55N,143-27.05E,32,4.45
850,2022/5/12,14:09,41-57.85N,143-27.31E,32,4.457
851,2022/5/12,14:10,41-58.18N,143-27.59E,32,4.434
852,2022/5/12,14:11,41-58.48N,143-27.85E,32,4.403
853,2022/5/12,14:12,41-58.81N,143-28.11E,32,4.491
854,2022/5/12,14:13,41-59.13N,143-28.39E,31,4.458
855,2022/5/12,14:14,41-59.44N,143-28.65E,31,4.41
856,2022/5/12,14:15,41-59.76N,143-28.93E,32,4.22
857,2022/5/12,14:16,42-00.12N,143-29.23E,32,3.902
858,2022/5/12,14:17,42-00.44N,143-29.50E,32,4.039
859,2022/5/12,14:18,42-00.73N,143-29.74E,32,4.076
860,2022/5/12,14:19,42-01.03N,143-30.00E,31,4.041
861,2022/5/12,14:20,42-01.35N,143-30.27E,32,3.958
862,2022/5/12,14:21,42-01.66N,143-30.53E,31,3.917
863,2022/5/12,14:22,42-01.97N,143-30.80E,32,3.988
864,2022/5/12,14:23,42-02.30N,143-31.08E,32,4.02
865,2022/5/12,14:24,42-02.60N,143-31.34E,32,3.926
866,2022/5/12,14:25,42-02.92N,143-31.61E,31,3.872
867,2022/5/12,14:26,42-03.24N,143-31.87E,31,3.775
868,2022/5/12,14:27,42-03.56N,143-32.13E,30,3.652
869,2022/5/12,14:28,42-03.89N,143-32.39E,30,3.577
870,2022/5/12,14:29,42-04.20N,143-32.64E,31,3.549
871,2022/5/12,14:30,42-04.52N,143-32.90E,30,3.511
872,2022/5/12,14:31,42-04.83N,143-33.15E,30,3.52
873,2022/5/12,14:32,42-05.15N,143-33.40E,30,3.498
874,2022/5/12,14:33,42-05.48N,143-33.66E,30,3.51
875,2022/5/12,14:34,42-05.79N,143-33.91E,30,3.52
876,2022/5/12,14:35,42-06.11N,143-34.17E,30,3.596
877,2022/5/12,14:36,42-06.43N,143-34.42E,31,3.55
878,2022/5/12,14:37,42-06.75N,143-34.67E,29,3.498
879,2022/5/12,14:38,42-07.08N,143-34.93E,29,3.366
880,2022/5/12,14:39,42-07.39N,143-35.16E,30,3.421
881,2022/5/12,14:40,42-07.71N,143-35.42E,30,3.453
882,2022/5/12,14:41,42-08.05N,143-35.68E,30,3.609
883,2022/5/12,14:42,42-08.35N,143-35.92E,30,3.752
884,2022/5/12,14:43,42-08.68N,143-36.18E,30,3.852
885,2022/5/12,14:44,42-08.99N,143-36.43E,30,3.937
886,2022/5/12,14:45,42-09.31N,143-36.68E,29,3.966
887,2022/5/12,14:46,42-09.64N,143-36.93E,29,4.066
888,2022/5/12,14:47,42-09.95N,143-37.17E,30,4.099
889,2022/5/12,14:48,42-10.27N,143-37.42E,29,4.165
890,2022/5/12,14:49,42-10.59N,143-37.67E,30,4.13
891,2022/5/12,14:50,42-10.90N,143-37.91E,30,4.177
892,2022/5/12,14:51,42-11.22N,143-38.16E,30,4.137
893,2022/5/12,14:52,42-11.54N,143-38.40E,29,4.084
894,2022/5/12,14:53,42-11.86N,143-38.65E,29,4.139
895,2022/5/12,14:54,42-12.18N,143-38.89E,29,4.176
896,2022/5/12,14:55,42-12.50N,143-39.14E,29,4.204
897,2022/5/12,14:56,42-12.82N,143-39.39E,29,4.232
898,2022/5/12,14:57,42-13.14N,143-39.63E,29,4.202
899,2022/5/12,14:58,42-13.46N,143-39.88E,29,4.289
900,2022/5/12,14:59,42-13.79N,143-40.13E,29,4.357
901,2022/5/12,15:00,42-14.10N,143-40.37E,29,4.449
902,2022/5/12,15:01,42-14.42N,143-40.62E,30,4.476
903,2022/5/12,15:02,42-14.73N,143-40.85E,29,4.508
904,2022/5/12,15:03,42-15.06N,143-41.10E,29,4.529
905,2022/5/12,15:04,42-15.37N,143-41.34E,29,4.549
906,2022/5/12,15:05,42-15.69N,143-41.59E,29,4.523
907,2022/5/12,15:06,42-16.03N,143-41.84E,29,4.44
908,2022/5/12,15:07,42-16.34N,143-42.08E,29,4.369
909,2022/5/12,15:08,42-16.67N,143-42.33E,29,4.326
910,2022/5/12,15:09,42-16.98N,143-42.58E,29,4.442
911,2022/5/12,15:10,42-17.30N,143-42.82E,29,4.461
912,2022/5/12,15:11,42-17.63N,143-43.07E,29,4.582
913,2022/5/12,15:12,42-17.94N,143-43.31E,28,4.702
914,2022/5/12,15:13,42-18.27N,143-43.55E,29,4.734
915,2022/5/12,15:14,42-18.58N,143-43.81E,31,4.785
916,2022/5/12,15:15,42-18.90N,143-44.07E,30,4.851
917,2022/5/12,15:16,42-19.22N,143-44.32E,29,4.894
918,2022/5/12,15:17,42-19.54N,143-44.56E,30,4.926
919,2022/5/12,15:18,42-19.86N,143-44.82E,29,4.965
920,2022/5/12,15:19,42-20.18N,143-45.06E,30,4.98
921,2022/5/12,15:20,42-20.50N,143-45.31E,29,5.092
922,2022/5/12,15:21,42-20.83N,143-45.57E,30,5.122
923,2022/5/12,15:22,42-21.14N,143-45.81E,30,5.122
924,2022/5/12,15:23,42-21.47N,143-46.06E,29,5.02
925,2022/5/12,15:24,42-21.79N,143-46.31E,29,4.984
926,2022/5/12,15:25,42-22.11N,143-46.56E,30,4.96
927,2022/5/12,15:26,42-22.44N,143-46.83E,30,4.971
928,2022/5/12,15:27,42-22.75N,143-47.07E,29,4.966
929,2022/5/12,15:28,42-23.08N,143-47.32E,29,4.795
930,2022/5/12,15:29,42-23.40N,143-47.56E,29,4.847
931,2022/5/12,15:30,42-23.72N,143-47.82E,30,4.937
932,2022/5/12,15:31,42-24.05N,143-48.07E,29,4.897
933,2022/5/12,15:32,42-24.36N,143-48.31E,29,4.866
934,2022/5/12,15:33,42-24.68N,143-48.55E,29,4.918
935,2022/5/12,15:34,42-25.00N,143-48.79E,29,4.915
936,2022/5/12,15:35,42-25.32N,143-49.04E,29,4.92
937,2022/5/12,15:36,42-25.65N,143-49.29E,29,4.887
938,2022/5/12,15:37,42-25.96N,143-49.53E,29,4.975
939,2022/5/12,15:38,42-26.29N,143-49.79E,29,5.049
940,2022/5/12,15:39,42-26.60N,143-50.03E,29,5.147
941,2022/5/12,15:40,42-26.92N,143-50.28E,29,5.207
942,2022/5/12,15:41,42-27.25N,143-50.53E,30,5.269
943,2022/5/12,15:42,42-27.56N,143-50.77E,29,5.284
944,2022/5/12,15:43,42-27.89N,143-51.02E,29,5.272
945,2022/5/12,15:44,42-28.22N,143-51.28E,29,5.273
946,2022/5/12,15:45,42-28.53N,143-51.51E,29,5.342
947,2022/5/12,15:46,42-28.86N,143-51.77E,29,5.439
948,2022/5/12,15:47,42-29.18N,143-52.01E,30,5.527
949,2022/5/12,15:48,42-29.50N,143-52.27E,29,5.491
950,2022/5/12,15:49,42-29.83N,143-52.52E,29,5.547
951,2022/5/12,15:50,42-30.14N,143-52.76E,29,5.52
952,2022/5/12,15:51,42-30.47N,143-53.02E,29,5.549
953,2022/5/12,15:52,42-30.79N,143-53.26E,29,5.621
954,2022/5/12,15:53,42-31.11N,143-53.51E,29,5.617
955,2022/5/12,15:54,42-31.44N,143-53.77E,29,5.608
956,2022/5/12,15:55,42-31.76N,143-54.01E,29,5.54
957,2022/5/12,15:56,42-32.13N,143-54.30E,29,5.557
958,2022/5/12,15:57,42-32.40N,143-54.51E,30,5.601
959,2022/5/12,15:58,42-32.73N,143-54.77E,30,5.616
960,2022/5/12,15:59,42-33.05N,143-55.02E,30,5.651
961,2022/5/12,16:00,42-33.41N,143-55.31E,29,5.715
962,2022/5/12,16:01,42-33.70N,143-55.54E,30,5.803
963,2022/5/12,16:02,42-34.01N,143-55.78E,30,5.821
964,2022/5/12,16:03,42-34.38N,143-56.08E,30,5.833
965,2022/5/12,16:04,42-34.70N,143-56.33E,30,5.819
966,2022/5/12,16:05,42-35.01N,143-56.59E,30,5.828
967,2022/5/12,16:06,42-35.34N,143-56.85E,30,5.673
968,2022/5/12,16:07,42-35.65N,143-57.10E,31,5.631
969,2022/5/12,16:08,42-35.97N,143-57.37E,31,5.726
970,2022/5/12,16:09,42-36.29N,143-57.62E,30,5.769
971,2022/5/12,16:10,42-36.61N,143-57.87E,30,6.378
972,2022/5/12,16:11,42-36.94N,143-58.12E,28,6.641
973,2022/5/12,16:12,42-37.25N,143-58.35E,28,6.932
974,2022/5/12,16:13,42-37.58N,143-58.60E,30,6.944
975,2022/5/12,16:14,42-37.89N,143-58.84E,30,6.763
976,2022/5/12,16:15,42-38.21N,143-59.09E,30,6.691
977,2022/5/12,16:16,42-38.49N,143-59.31E,29,6.733
978,2022/5/12,16:17,42-38.80N,143-59.55E,30,6.768
979,2022/5/12,16:18,42-39.12N,143-59.80E,30,6.736
980,2022/5/12,16:19,42-39.44N,144-00.06E,29,6.647
981,2022/5/12,16:20,42-39.75N,144-00.29E,29,6.608
982,2022/5/12,16:21,42-40.07N,144-00.54E,29,6.638
983,2022/5/12,16:22,42-40.39N,144-00.78E,29,6.704
984,2022/5/12,16:23,42-40.75N,144-01.06E,29,6.561
985,2022/5/12,16:24,42-41.08N,144-01.31E,29,6.609
986,2022/5/12,16:25,42-41.38N,144-01.55E,29,6.459
987,2022/5/12,16:26,42-41.70N,144-01.80E,29,6.469
988,2022/5/12,16:27,42-42.04N,144-02.04E,29,6.324
989,2022/5/12,16:28,42-42.31N,144-02.29E,30,6.335
990,2022/5/12,16:29,42-42.63N,144-02.54E,29,6.341
991,2022/5/12,16:30,42-42.93N,144-02.78E,29,6.217
992,2022/5/12,16:31,42-43.26N,144-03.03E,29,6.128
993,2022/5/12,16:32,42-43.58N,144-03.27E,29,6.02
994,2022/5/12,16:33,42-43.90N,144-03.51E,29,6.008
995,2022/5/12,16:34,42-44.22N,144-03.75E,29,6.011
996,2022/5/12,16:35,42-44.56N,144-04.00E,29,5.991
997,2022/5/12,16:36,42-44.88N,144-04.25E,29,5.811
998,2022/5/12,16:37,42-45.20N,144-04.50E,29,5.788
999,2022/5/12,16:38,42-45.52N,144-04.74E,29,5.805
1000,2022/5/12,16:39,42-45.84N,144-04.98E,29,5.903
1001,2022/5/12,16:40,42-46.17N,144-05.23E,29,5.877
1002,2022/5/12,16:41,42-46.46N,144-05.45E,29,5.883
1003,2022/5/12,16:42,42-46.77N,144-05.69E,29,5.653
1004,2022/5/12,16:43,42-47.09N,144-05.93E,29,5.643
1005,2022/5/12,16:44,42-47.40N,144-06.17E,29,5.713
1006,2022/5/12,16:45,42-47.73N,144-06.42E,29,5.61
1007,2022/5/12,16:46,42-48.05N,144-06.66E,29,5.885
1008,2022/5/12,16:47,42-48.41N,144-06.94E,29,5.879
1009,2022/5/12,16:48,42-48.73N,144-07.18E,29,5.778
1010,2022/5/12,16:49,42-49.03N,144-07.41E,29,5.664
1011,2022/5/12,16:50,42-49.32N,144-07.63E,28,5.661
1012,2022/5/12,16:51,42-49.65N,144-07.88E,28,5.523
1013,2022/5/12,16:52,42-49.96N,144-08.11E,28,5.553
1014,2022/5/12,16:53,42-50.29N,144-08.37E,28,5.398
1015,2022/5/12,16:54,42-50.60N,144-08.60E,29,5.527
1016,2022/5/12,16:55,42-50.92N,144-08.84E,29,5.274
1017,2022/5/12,16:56,42-51.24N,144-09.09E,29,5.256
1018,2022/5/12,16:57,42-51.55N,144-09.33E,30,5.514
1019,2022/5/12,16:58,42-51.86N,144-09.59E,31,5.57
1020,2022/5/12,16:59,42-52.17N,144-09.84E,30,5.506
1021,2022/5/12,17:00,42-52.48N,144-10.09E,30,5.696
1022,2022/5/12,17:01,42-52.80N,144-10.35E,30,5.613
1023,2022/5/12,17:02,42-53.10N,144-10.59E,30,5.343
1024,2022/5/12,17:03,42-53.42N,144-10.85E,30,5.288